Date String (YYYY-MM-DD hh:mm:ss) UTC,Instrument flags,Ambient pressure (hPa),Sample flow (lpm),Bypass flow (lpm),Sample temperature (°C),Ambient temperature (°C),ASC tube jacket temperature (°C),LED temperature (°C),Box temperature (°C),Sample RH (%),Span deviation,Mass concentration (μg/m³),Mass concentration (μg/m³),Mass concentration (μg/m³)
DateTimeUTC,F1_M11,P_M11,Q1_M11,Q2_M11,T1_M11,T2_M11,T3_M11,T4_M11,T5_M11,U1_M11,ZSPAN_M11,X0_M11,X2_M11,X1_M11
2022-01-09 12:00:00,,0833.1,5.00,0.00,22.5,21.7,00.0,31.5,24.2,11.3,0000.0,0002.58,0001.62,0001.28
2022-01-09 12:01:00,,0833.1,5.00,0.00,22.5,21.7,00.0,31.5,24.2,11.3,0000.0,0002.74,0001.64,0001.29
2022-01-09 12:02:00,,0833.2,5.00,0.00,22.4,21.6,00.0,31.5,24.1,11.3,0000.0,0002.76,0001.62,0001.29
2022-01-09 12:03:00,,0833.2,4.99,0.00,22.4,21.6,00.0,31.5,24.1,11.4,0000.0,0002.85,0001.63,0001.30
2022-01-09 12:04:00,,0833.2,5.01,0.00,22.4,21.6,00.0,31.5,24.1,11.4,0000.0,0002.98,0001.68,0001.31
2022-01-09 12:05:00,,0833.3,4.99,0.00,22.5,22.2,00.0,31.5,24.2,11.4,0000.0,0003.02,0001.69,0001.32
2022-01-09 12:06:00,,0833.4,5.01,0.00,22.6,22.9,00.0,31.6,24.5,11.3,0000.0,0002.95,0001.66,0001.32
2022-01-09 12:07:00,,0833.4,5.01,0.00,22.7,23.3,00.0,31.6,24.7,11.3,0000.0,0003.30,0001.65,0001.32
2022-01-09 12:08:00,,0833.4,5.00,0.00,22.8,23.1,00.0,31.6,24.7,11.2,0000.0,0004.03,0001.61,0001.31
2022-01-09 12:09:00,,0833.4,5.00,0.00,22.8,22.8,00.0,31.6,24.7,11.2,0000.0,0004.28,0001.57,0001.30
2022-01-09 12:10:00,,0833.4,5.01,0.00,22.8,22.6,00.0,31.6,24.6,11.2,0000.0,0004.22,0001.54,0001.30
2022-01-09 12:11:00,,0833.4,4.99,0.00,22.7,22.5,00.0,31.6,24.5,11.2,0000.0,0004.18,0001.54,0001.30
2022-01-09 12:12:00,,0833.5,5.00,0.00,22.7,22.3,00.0,31.6,24.5,11.2,0000.0,0004.02,0001.53,0001.31
2022-01-09 12:13:00,,0833.5,4.99,0.00,22.7,22.2,00.0,31.6,24.4,11.2,0000.0,0003.88,0001.51,0001.31
2022-01-09 12:14:00,,0833.6,5.01,0.00,22.7,22.1,00.0,31.6,24.4,11.2,0000.0,0003.90,0001.51,0001.31
2022-01-09 12:15:00,,0833.5,4.99,0.00,22.6,22.0,00.0,31.6,24.4,11.2,0000.0,0004.54,0001.46,0001.29
2022-01-09 12:16:00,,0833.5,5.00,0.00,22.6,22.0,00.0,31.6,24.3,11.2,0000.0,0004.48,0001.43,0001.27
2022-01-09 12:17:00,,0833.6,5.00,0.00,22.6,21.9,00.0,31.6,24.3,11.2,0000.0,0004.49,0001.43,0001.27
2022-01-09 12:18:00,,0833.6,5.01,0.00,22.6,21.8,00.0,31.6,24.3,11.2,0000.0,0004.20,0001.47,0001.27
2022-01-09 12:19:00,,0833.5,4.99,0.00,22.5,21.8,00.0,31.6,24.3,11.2,0000.0,0003.26,0001.48,0001.27
2022-01-09 12:20:00,,0833.6,5.00,0.00,22.5,21.7,00.0,31.6,24.2,11.2,0000.0,0002.92,0001.50,0001.28
2022-01-09 12:21:00,,0833.5,4.99,0.00,22.5,21.7,00.0,31.6,24.2,11.2,0000.0,0002.92,0001.49,0001.27
2022-01-09 12:22:00,,0833.5,5.02,0.00,22.5,21.7,00.0,31.6,24.2,11.3,0000.0,0003.14,0001.50,0001.26
2022-01-09 12:23:00,,0833.5,4.98,0.00,22.5,21.6,00.0,31.5,24.2,11.3,0000.0,0003.14,0001.48,0001.25
2022-01-09 12:24:00,,0833.5,5.01,0.00,22.4,21.6,00.0,31.5,24.1,11.2,0000.0,0003.19,0001.51,0001.26
2022-01-09 12:25:00,,0833.5,4.99,0.00,22.4,21.7,00.0,31.5,24.2,11.2,0000.0,0003.01,0001.49,0001.26
2022-01-09 12:26:00,,0833.6,5.00,0.00,22.5,22.3,00.0,31.6,24.3,11.2,0000.0,0002.37,0001.54,0001.28
2022-01-09 12:27:00,,0833.6,5.00,0.00,22.7,23.1,00.0,31.6,24.6,11.1,0000.0,0002.40,0001.56,0001.30
2022-01-09 12:28:00,,0833.6,5.00,0.00,22.8,23.3,00.0,31.6,24.7,11.0,0000.0,0002.95,0001.57,0001.30
2022-01-09 12:29:00,,0833.6,5.00,0.00,22.8,23.0,00.0,31.6,24.7,11.0,0000.0,0003.43,0001.54,0001.30
2022-01-09 12:30:00,,0833.6,5.00,0.00,22.8,22.8,00.0,31.6,24.7,11.0,0000.0,0003.62,0001.59,0001.31
2022-01-09 12:31:00,,0833.6,5.00,0.00,22.8,22.6,00.0,31.7,24.6,11.0,0000.0,0003.77,0001.62,0001.31
2022-01-09 12:32:00,,0833.6,5.01,0.00,22.8,22.4,00.0,31.7,24.5,11.0,0000.0,0004.07,0001.63,0001.33
2022-01-09 12:33:00,,0833.6,4.99,0.00,22.7,22.2,00.0,31.7,24.5,11.1,0000.0,0004.45,0001.65,0001.33
2022-01-09 12:34:00,,0833.7,5.01,0.00,22.7,22.1,00.0,31.7,24.4,11.1,0000.0,0004.44,0001.66,0001.34
2022-01-09 12:35:00,,0833.7,4.98,0.00,22.7,22.0,00.0,31.7,24.4,11.1,0000.0,0004.48,0001.68,0001.35
2022-01-09 12:36:00,,0833.7,5.00,0.00,22.7,22.0,00.0,31.7,24.4,11.1,0000.0,0004.51,0001.70,0001.35
2022-01-09 12:37:00,,0833.7,5.00,0.00,22.6,21.9,00.0,31.7,24.4,11.1,0000.0,0004.56,0001.71,0001.35
2022-01-09 12:38:00,,0833.7,5.00,0.00,22.6,21.9,00.0,31.6,24.3,11.1,0000.0,0004.64,0001.71,0001.35
2022-01-09 12:39:00,,0833.7,4.99,0.00,22.6,21.8,00.0,31.6,24.3,11.2,0000.0,0004.33,0001.74,0001.36
2022-01-09 12:40:00,,0833.7,5.01,0.00,22.6,21.8,00.0,31.6,24.3,11.2,0000.0,0003.69,0001.75,0001.37
2022-01-09 12:41:00,,0833.7,5.00,0.00,22.5,21.7,00.0,31.6,24.3,11.2,0000.0,0003.53,0001.71,0001.38
2022-01-09 12:42:00,,0833.7,4.99,0.00,22.5,21.7,00.0,31.6,24.2,11.2,0000.0,0004.05,0001.67,0001.39
2022-01-09 12:43:00,,0833.7,5.01,0.00,22.5,21.7,00.0,31.6,24.2,11.2,0000.0,0004.85,0001.68,0001.40
2022-01-09 12:44:00,,0833.8,5.00,0.00,22.5,21.7,00.0,31.6,24.2,11.3,0000.0,0004.12,0001.68,0001.41
2022-01-09 12:45:00,,0833.8,5.00,0.00,22.5,21.6,00.0,31.5,24.2,11.3,0000.0,0004.14,0001.69,0001.41
2022-01-09 12:46:00,,0833.7,5.00,0.00,22.4,21.6,00.0,31.5,24.1,11.3,0000.0,0004.05,0001.64,0001.39
2022-01-09 12:47:00,,0833.7,5.00,0.00,22.4,21.6,00.0,31.5,24.1,11.4,0000.0,0004.00,0001.62,0001.39
2022-01-09 12:48:00,,0833.8,5.00,0.00,22.5,22.0,00.0,31.5,24.2,11.4,0000.0,0003.83,0001.56,0001.38
2022-01-09 12:49:00,,0833.8,5.00,0.00,22.6,22.8,00.0,31.6,24.5,11.3,0000.0,0003.80,0001.56,0001.37
2022-01-09 12:50:00,,0833.8,5.01,0.00,22.7,23.3,00.0,31.6,24.7,11.2,0000.0,0004.02,0001.55,0001.37
2022-01-09 12:51:00,,0833.7,5.00,0.00,22.8,23.1,00.0,31.6,24.7,11.2,0000.0,0004.06,0001.55,0001.37
2022-01-09 12:52:00,,0833.7,4.99,0.00,22.8,22.9,00.0,31.6,24.7,11.2,0000.0,0004.03,0001.53,0001.36
2022-01-09 12:53:00,,0833.7,5.00,0.00,22.8,22.7,00.0,31.6,24.6,11.1,0000.0,0003.65,0001.54,0001.36
2022-01-09 12:54:00,,0833.6,5.01,0.00,22.8,22.5,00.0,31.7,24.6,11.1,0000.0,0003.40,0001.54,0001.37
2022-01-09 12:55:00,,0833.7,4.99,0.00,22.7,22.4,00.0,31.7,24.5,11.1,0000.0,0003.94,0001.51,0001.36
2022-01-09 12:56:00,,0833.7,5.01,0.00,22.7,22.3,00.0,31.7,24.5,11.2,0000.0,0004.02,0001.51,0001.37
2022-01-09 12:57:00,,0833.7,5.00,0.00,22.7,22.2,00.0,31.7,24.5,11.2,0000.0,0004.11,0001.56,0001.39
2022-01-09 12:58:00,,0833.7,5.00,0.00,22.7,22.1,00.0,31.6,24.4,11.2,0000.0,0004.15,0001.57,0001.39
2022-01-09 12:59:00,,0833.7,4.99,0.00,22.7,22.0,00.0,31.6,24.4,11.2,0000.0,0004.17,0001.58,0001.40
